Weather History for KMLE - September, 2013

Change the Weather History Date:

Saturday, September 28, 2013

  Actual Average (KOMA) Record (KOMA)
Temperature  
Mean Temperature 64 °F 60 °F  
Max Temperature 75 °F 73 °F 100 °F (1953)
Min Temperature 51 °F 48 °F 30 °F (1984)
Degree Days  
Heating Degree Days 2 6  
Month to date heating degree days 81  
Since 1 July heating degree days 89  
Cooling Degree Days 0 2  
Month to date cooling degree days 114  
Year to date cooling degree days 1094  
Growing Degree Days 14 (Base 50)    
Moisture  
Dew Point 60 °F    
Average Humidity 87    
Maximum Humidity 100    
Minimum Humidity 67    
Precipitation  
Precipitation 0.31 in 0.08 in 5.69 in (1923)
Month to date precipitation 2.51  
Year to date precipitation 25.62  
Snow  
Snow 0.00 in 0.00 in - ()
Month to date snowfall 0.0  
Since 1 July snowfall 0.0  
Snow Depth -    
Sea Level Pressure  
Sea Level Pressure 29.89 in    
Wind  
Wind Speed 11 mph (WNW)    
Max Wind Speed 20 mph    
Max Gust Speed 29 mph    
Visibility 9 miles    
Events Rain , Thunderstorm    
T = Trace of Precipitation, MM = Missing Value Source: NWS Daily Summary

Daily Weather History Graph

Daily Weather History Graph

Search for Another Location

Airport or City:

Trip Planner

Search our weather history database for the weather conditions in past years. The results will help you decide how hot, cold, wet, or windy it might be!

Date:

Astronomy

Sep. 28, 2013 Rise Set
Actual Time 7:18 AM CDT 7:10 PM CDT
Civil Twilight 6:50 AM CDT 7:38 PM CDT
Nautical Twilight 6:18 AM CDT 8:10 PM CDT
Astronomical Twilight 5:46 AM CDT 8:42 PM CDT
Moon 1:03 AM CDT (9/28) 3:33 PM CDT (9/28)
Length of Visible Light 12h 47m
Length of Day
11h 52m
Waning Crescent, 36% of the Moon is Illuminated
Sep 28
Waning Crescent
Oct 4
New
Oct 11
First Quarter
Oct 18
Full
Oct 26
Last Quarter

Hourly Weather History & Observations

Time (CDT) Temp. Dew Point Humidity Pressure Visibility Wind Dir Wind Speed Gust Speed Precip Events Conditions
12:15 AM 73.4 °F 68.9 °F 86% 29.75 in 10.0 mi SE 11.5 mph 16.1 mph N/A   Overcast
12:35 AM 73.6 °F 68.9 °F 85% 29.73 in 10.0 mi SE 13.8 mph 18.4 mph N/A   Mostly Cloudy
12:55 AM 73.9 °F 68.9 °F 84% 29.72 in 10.0 mi SE 13.8 mph 19.6 mph N/A   Clear
1:15 AM 74.3 °F 68.9 °F 83% 29.71 in 10.0 mi SE 12.7 mph 18.4 mph N/A   Clear
1:35 AM 74.1 °F 68.9 °F 84% 29.71 in 10.0 mi SSE 16.1 mph 20.7 mph N/A   Clear
1:55 AM 74.5 °F 67.6 °F 79% 29.71 in 10.0 mi SE 16.1 mph 24.2 mph N/A   Clear
2:15 AM 75.2 °F 68.0 °F 78% 29.71 in 10.0 mi SSE 17.3 mph 25.3 mph N/A   Clear
2:35 AM 74.8 °F 68.2 °F 80% 29.72 in 10.0 mi SSE 17.3 mph 21.9 mph N/A   Mostly Cloudy
2:55 AM 74.7 °F 68.2 °F 80% 29.71 in 10.0 mi SSE 17.3 mph 25.3 mph N/A   Overcast
3:15 AM 74.5 °F 68.0 °F 80% 29.69 in 10.0 mi SSE 16.1 mph 21.9 mph N/A   Overcast
3:35 AM 74.7 °F 68.2 °F 80% 29.69 in 10.0 mi South 11.5 mph 21.9 mph N/A   Overcast
3:55 AM 74.3 °F 68.2 °F 81% 29.68 in 10.0 mi SSE 11.5 mph 17.3 mph N/A   Overcast
4:15 AM 73.4 °F 68.5 °F 85% 29.70 in 10.0 mi South 6.9 mph - N/A Rain , Thunderstorm Light Thunderstorms and Rain
4:35 AM 72.9 °F 68.7 °F 87% 29.71 in 10.0 mi SSW 5.8 mph - N/A   Drizzle
4:55 AM 69.6 °F 69.6 °F 100% 29.72 in 5.0 mi SW 4.6 mph - 0.04 in Rain , Thunderstorm Rain
5:15 AM 67.6 °F 67.6 °F 100% 29.73 in 4.0 mi Calm Calm - 0.07 in Rain Heavy Rain
5:35 AM 66.6 °F 66.6 °F 100% 29.74 in 4.0 mi WNW 5.8 mph - 0.20 in Rain Heavy Rain
5:55 AM 66.7 °F 66.7 °F 100% 29.70 in 7.0 mi North 3.5 mph - 0.23 in Rain Light Rain
6:15 AM 66.2 °F 66.2 °F 100% 29.72 in 10.0 mi NNW 3.5 mph - N/A Rain Light Rain
6:35 AM 65.8 °F 65.8 °F 100% 29.73 in 7.0 mi Calm Calm - 0.03 in Rain Rain
6:55 AM 61.9 °F 61.9 °F 100% 29.79 in 10.0 mi West 18.4 mph 27.6 mph 0.04 in Rain Light Rain
7:15 AM 58.6 °F 58.6 °F 100% 29.81 in 10.0 mi WNW 18.4 mph 26.5 mph N/A   Overcast
7:35 AM 56.7 °F 56.7 °F 100% 29.82 in 5.0 mi WNW 19.6 mph 24.2 mph N/A Rain Light Rain
7:55 AM 56.3 °F 56.3 °F 100% 29.83 in 10.0 mi NW 16.1 mph 23.0 mph N/A   Overcast
8:15 AM 56.3 °F 56.3 °F 100% 29.85 in 10.0 mi WNW 17.3 mph 24.2 mph N/A   Overcast
8:35 AM 55.6 °F 55.6 °F 100% 29.86 in 4.0 mi WNW 17.3 mph 25.3 mph N/A   Overcast
8:55 AM 55.0 °F 55.0 °F 100% 29.87 in 4.0 mi NW 13.8 mph 18.4 mph N/A   Overcast
9:15 AM - - N/A% 29.88 in 5.0 mi WNW 13.8 mph 19.6 mph N/A   Overcast
9:35 AM 54.9 °F 54.9 °F 100% 29.89 in 7.0 mi NW 18.4 mph 28.8 mph N/A   Overcast
9:55 AM 55.6 °F 55.6 °F 100% 29.90 in 10.0 mi WNW 16.1 mph 23.0 mph N/A   Overcast
10:15 AM 55.8 °F 55.8 °F 100% 29.91 in 10.0 mi WNW 16.1 mph 26.5 mph N/A   Overcast
10:35 AM 56.3 °F 56.3 °F 100% 29.92 in 10.0 mi NW 16.1 mph 21.9 mph N/A   Overcast
10:55 AM 56.8 °F 56.8 °F 100% 29.93 in 10.0 mi NW 11.5 mph - N/A   Scattered Clouds
11:15 AM 58.3 °F 57.2 °F 96% 29.93 in 10.0 mi NW 11.5 mph - N/A   Clear
11:35 AM 59.0 °F 57.4 °F 94% 29.94 in 10.0 mi NW 11.5 mph 19.6 mph N/A   Clear
11:55 AM 59.9 °F 57.7 °F 93% 29.95 in 10.0 mi NW 11.5 mph 18.4 mph N/A   Scattered Clouds
12:15 PM 61.3 °F 58.6 °F 91% 29.95 in 10.0 mi WNW 11.5 mph 19.6 mph N/A   Scattered Clouds
12:35 PM 62.1 °F 58.3 °F 87% 29.95 in 10.0 mi WNW 13.8 mph 19.6 mph N/A   Scattered Clouds
12:55 PM 62.8 °F 58.6 °F 86% 29.96 in 10.0 mi West 12.7 mph 20.7 mph N/A   Scattered Clouds
1:15 PM 62.6 °F 57.2 °F 82% 29.96 in 10.0 mi WNW 10.4 mph 20.7 mph N/A   Clear
1:35 PM 63.3 °F 57.7 °F 82% 29.96 in 10.0 mi NW 12.7 mph - N/A   Clear
1:55 PM 64.0 °F 58.3 °F 82% 29.97 in 10.0 mi WNW 11.5 mph 19.6 mph N/A   Scattered Clouds
2:15 PM 64.4 °F 58.1 °F 80% 29.96 in 10.0 mi WNW 6.9 mph - N/A   Scattered Clouds
2:35 PM 65.3 °F 57.9 °F 77% 29.96 in 10.0 mi WNW 9.2 mph 16.1 mph N/A   Scattered Clouds
2:55 PM 66.6 °F 57.9 °F 74% 29.96 in 10.0 mi WNW 15.0 mph 18.4 mph N/A   Clear
3:15 PM 66.4 °F 56.8 °F 71% 29.96 in 10.0 mi NW 11.5 mph - N/A   Clear
3:35 PM 67.1 °F 56.8 °F 70% 29.97 in 10.0 mi WNW 12.7 mph 21.9 mph N/A   Clear
3:55 PM 66.9 °F 56.5 °F 69% 29.98 in 10.0 mi NW 11.5 mph 21.9 mph N/A   Clear
4:15 PM 67.5 °F 57.0 °F 69% 29.98 in 10.0 mi West 12.7 mph - N/A   Clear
4:35 PM 67.6 °F 56.5 °F 67% 29.97 in 10.0 mi West 11.5 mph - N/A   Clear
4:55 PM 67.6 °F 56.3 °F 67% 29.98 in 10.0 mi NW 11.5 mph 16.1 mph N/A   Clear
5:15 PM 67.6 °F 56.7 °F 68% 29.98 in 10.0 mi West 11.5 mph 16.1 mph N/A   Clear
5:35 PM 67.3 °F 55.9 °F 67% 29.98 in 10.0 mi WNW 9.2 mph - N/A   Clear
5:55 PM 67.3 °F 56.5 °F 68% 29.99 in 10.0 mi WNW 6.9 mph - N/A   Clear
6:15 PM 66.4 °F 56.3 °F 70% 30.00 in 10.0 mi WNW 8.1 mph - N/A   Clear
6:35 PM 65.8 °F 56.1 °F 71% 30.01 in 10.0 mi WNW 5.8 mph - N/A   Clear
6:55 PM 64.6 °F 56.1 °F 74% 30.01 in 10.0 mi WNW 4.6 mph - N/A   Clear
7:15 PM 62.8 °F 55.9 °F 78% 30.01 in 10.0 mi Calm Calm - N/A   Clear
7:35 PM 59.0 °F 56.3 °F 91% 30.01 in 10.0 mi Calm Calm - N/A   Clear
7:55 PM 57.2 °F 56.7 °F 98% 30.02 in 10.0 mi Calm Calm - N/A   Clear
8:15 PM 55.6 °F 55.6 °F 100% 30.03 in 10.0 mi Calm Calm - N/A   Clear
8:35 PM 54.7 °F 54.7 °F 100% 30.03 in 10.0 mi Calm Calm - N/A   Clear
8:55 PM 53.8 °F 53.8 °F 100% 30.04 in 10.0 mi Calm Calm - N/A   Clear
9:15 PM 53.1 °F 53.1 °F 100% 30.04 in 10.0 mi Calm Calm - N/A   Clear
9:35 PM 52.3 °F 52.3 °F 100% 30.05 in 10.0 mi Calm Calm - N/A   Clear
9:55 PM 52.0 °F 52.0 °F 100% 30.05 in 10.0 mi Calm Calm - N/A   Clear
10:15 PM 51.4 °F 51.4 °F 100% 30.06 in 10.0 mi Calm Calm - N/A   Clear
10:35 PM - - N/A% 30.06 in 10.0 mi Calm Calm - N/A   Clear
10:55 PM - - N/A% 30.06 in 10.0 mi Calm Calm - N/A   Clear
11:15 PM - - N/A% 30.06 in 10.0 mi Calm Calm - N/A   Clear
11:35 PM - - N/A% 30.06 in 10.0 mi Calm Calm - N/A   Clear
11:55 PM - - N/A% 30.06 in 10.0 mi Calm Calm - N/A   Clear